Regional Weather Roundup
Issued by NWS

Home | Current Version | Previous Version | Text Only | Print | Product List | Glossary On
Versions: 1 2 3 4 5 6 7 8 9 10 11 12 13 14 15 16 17 18 19 20 21 22 23 24 25 26 27 28 29 30 31 32 33 34 35 36 37 38 39 40 41 42 43 44 45 46 47 48 49 50
000
ASUS43 KLMK 181010
RWRKY
KENTUCKY REGIONAL WEATHER ROUNDUP
NATIONAL WEATHER SERVICE LOUISVILLE KY
500 AM EST THU DEC 18 2014

NOTE "FAIR" INDICATES FEW OR NO CLOUDS BELOW 12,000 FEET
WITH NO SIGNIFICANT WEATHER AND/OR OBSTRUCTIONS TO VISIBILITY.

KYZ001>023-026-027-061>063-070>075-181100-
WESTERN AND SOUTH CENTRAL KENTUCKY

CITY           SKY/WX    TMP DP  RH WIND       PRES   REMARKS
PADUCAH        LGT RAIN  33  31  92 E5        30.25F WCI  29
HENDERSON      CLOUDY    30  23  74 CALM      30.29R
OWENSBORO      MOCLDY    30  25  82 MISG      30.28F
HOPKINSVILLE   DRIZZLE   32  28  86 NE3       30.25S
BOWLING GREEN  MIX PCPN  31  25  78 E6        30.25F WCI  25
GLASGOW        FLURRIES  30  26  84 E5        30.25F WCI  25
$$

KYZ024-025-028>034-038-045-046-053-181100-
NORTH CENTRAL KENTUCKY

CITY           SKY/WX    TMP DP  RH WIND       PRES   REMARKS
LOUISVILLE/SDF CLOUDY    30  22  72 VRB3      30.27F
LOUISVILLE/LOU CLOUDY    29  22  75 NE3       30.27F
FORT KNOX      CLOUDY    29  23  80 N3        30.24S
$$

KYZ035>037-039>044-047>052-055>060-089>105-181100-
NORTHEAST KENTUCKY

CITY           SKY/WX    TMP DP  RH WIND       PRES   REMARKS
LEXINGTON      CLOUDY    28  22  78 NE7       30.25F WCI  21
COVINGTON      CLOUDY    26  18  71 NE7       30.26F WCI  18
FRANKFORT      CLOUDY    28  20  71 NE6       30.24F WCI  22
$$

KYZ054-064>069-076>088-106>120-181100-
SOUTHEAST KENTUCKY

CITY           SKY/WX    TMP DP  RH WIND       PRES   REMARKS
JACKSON        CLOUDY    28  23  81 CALM      30.22S
LONDON         PTCLDY    26  22  84 N3        30.22F
SOMERSET       CLOUDY    27  27 100 CALM      30.26F
MIDDLESBORO    PTCLDY    27  26  96 CALM      30.22S
MONTICELLO     PTSUNNY   27  26  96 CALM      30.27F
$$



USA.gov is the U.S. government's official web portal to all federal, state and local government web resources and services.